| time (UTC) | temp C | wind direction | speed KPH | gust KPH | rain 1hr cm | rain 24hr cm | rain mn cm | humidity % | barometer mb |
| 20260504000537 | 19 | 278 | 12.9 | 17.7 | 0.00 | 0.00 | 0.00 | 51 | 1005.0 |
| 20260504000035 | 20 | 285 | 20.9 | 25.7 | 0.00 | 0.00 | 0.00 | 48 | 1004.9 |
| 20260503235533 | 20 | 284 | 16.1 | 25.7 | 0.00 | 0.00 | 0.00 | 50 | 1004.9 |
| 20260503235029 | 20 | 280 | 17.7 | 24.1 | 0.00 | 0.00 | 0.00 | 49 | 1004.8 |
| 20260503234527 | 20 | 289 | 12.9 | 20.9 | 0.00 | 0.00 | 0.00 | 51 | 1005.2 |
| 20260503234025 | 20 | 284 | 19.3 | 29.0 | 0.00 | 0.00 | 0.00 | 49 | 1005.0 |
| 20260503233521 | 20 | 275 | 24.1 | 33.8 | 0.00 | 0.00 | 0.00 | 49 | 1004.7 |
| 20260503233017 | 20 | 267 | 27.4 | 32.2 | 0.00 | 0.00 | 0.00 | 47 | 1004.9 |
| 20260503232514 | 20 | 259 | 20.9 | 25.7 | 0.00 | 0.00 | 0.00 | 49 | 1005.0 |
| 20260503232012 | 20 | 278 | 20.9 | 25.7 | 0.00 | 0.00 | 0.00 | 48 | 1005.2 |
| 20260503231510 | 20 | 288 | 30.6 | 37.0 | 0.00 | 0.00 | 0.00 | 48 | 1005.0 |
| 20260503231006 | 20 | 278 | 27.4 | 32.2 | 0.00 | 0.00 | 0.00 | 47 | 1004.9 |
| 20260503230503 | 20 | 287 | 24.1 | 37.0 | 0.00 | 0.00 | 0.00 | 48 | 1005.0 |
| 20260503230000 | 20 | 278 | 30.6 | 37.0 | 0.00 | 0.00 | 0.00 | 47 | 1005.4 |
| 20260503225457 | 20 | 272 | 32.2 | 35.4 | 0.00 | 0.00 | 0.00 | 47 | 1005.2 |
| 20260503224952 | 20 | 270 | 35.4 | 40.2 | 0.00 | 0.00 | 0.00 | 47 | 1005.3 |
| 20260503224449 | 20 | 275 | 37.0 | 40.2 | 0.00 | 0.00 | 0.00 | 47 | 1005.4 |
| 20260503223947 | 20 | 269 | 24.1 | 40.2 | 0.00 | 0.00 | 0.00 | 48 | 1005.6 |
| 20260503223445 | 20 | 270 | 27.4 | 32.2 | 0.00 | 0.00 | 0.00 | 49 | 1005.5 |
| 20260503222940 | 20 | 294 | 22.5 | 33.8 | 0.00 | 0.00 | 0.00 | 49 | 1005.5 |
| 20260503222439 | 20 | 273 | 30.6 | 40.2 | 0.00 | 0.00 | 0.00 | 47 | 1005.4 |
| 20260503221937 | 20 | 289 | 35.4 | 38.6 | 0.00 | 0.00 | 0.00 | 48 | 1005.4 |
| 20260503221435 | 20 | 293 | 25.7 | 35.4 | 0.00 | 0.00 | 0.00 | 48 | 1005.3 |
| 20260503220931 | 19 | 284 | 32.2 | 41.8 | 0.00 | 0.00 | 0.00 | 48 | 1005.5 |
| 20260503220428 | 20 | 276 | 33.8 | 38.6 | 0.00 | 0.00 | 0.00 | 47 | 1005.4 |
| 20260503215925 | 20 | 276 | 35.4 | 40.2 | 0.00 | 0.00 | 0.00 | 48 | 1005.5 |
| 20260503215422 | 20 | 275 | 25.7 | 41.8 | 0.00 | 0.00 | 0.00 | 48 | 1005.5 |
| 20260503214920 | 19 | 270 | 33.8 | 40.2 | 0.00 | 0.00 | 0.00 | 47 | 1005.6 |
| 20260503214417 | 20 | 276 | 30.6 | 35.4 | 0.00 | 0.00 | 0.00 | 48 | 1005.5 |
| 20260503213914 | 19 | 267 | 25.7 | 41.8 | 0.00 | 0.00 | 0.00 | 49 | 1005.6 |
| 20260503213412 | 20 | 269 | 32.2 | 37.0 | 0.00 | 0.00 | 0.00 | 47 | 1005.4 |
| 20260503212908 | 19 | 280 | 27.4 | 43.5 | 0.00 | 0.00 | 0.00 | 48 | 1005.5 |
| 20260503212406 | 19 | 285 | 38.6 | 46.7 | 0.00 | 0.00 | 0.00 | 48 | 1005.4 |
| 20260503211903 | 19 | 270 | 35.4 | 46.7 | 0.00 | 0.00 | 0.00 | 48 | 1005.3 |
| 20260503211400 | 19 | 272 | 30.6 | 51.5 | 0.00 | 0.00 | 0.00 | 49 | 1005.7 |
| 20260503210855 | 19 | 277 | 33.8 | 41.8 | 0.00 | 0.00 | 0.00 | 49 | 1005.9 |
| 20260503210353 | 19 | 287 | 30.6 | 49.9 | 0.00 | 0.00 | 0.00 | 49 | 1005.8 |
| 20260503205847 | 19 | 259 | 38.6 | 49.9 | 0.00 | 0.00 | 0.00 | 47 | 1005.7 |
| 20260503205344 | 18 | 280 | 20.9 | 37.0 | 0.00 | 0.00 | 0.00 | 50 | 1006.0 |
| 20260503204840 | 18 | 273 | 35.4 | 46.7 | 0.00 | 0.00 | 0.00 | 49 | 1006.1 |
| 20260503204338 | 19 | 274 | 29.0 | 41.8 | 0.00 | 0.00 | 0.00 | 48 | 1005.8 |
| 20260503203835 | 19 | 262 | 29.0 | 33.8 | 0.00 | 0.00 | 0.00 | 48 | 1005.9 |
| 20260503203333 | 18 | 276 | 29.0 | 38.6 | 0.00 | 0.00 | 0.00 | 48 | 1006.1 |
| 20260503202829 | 18 | 249 | 25.7 | 38.6 | 0.00 | 0.00 | 0.00 | 48 | 1006.3 |
| 20260503202328 | 18 | 265 | 43.5 | 49.9 | 0.00 | 0.00 | 0.00 | 46 | 1006.4 |
| 20260503201826 | 18 | 273 | 40.2 | 48.3 | 0.00 | 0.00 | 0.00 | 48 | 1006.4 |
| 20260503201322 | 18 | 283 | 41.8 | 54.7 | 0.00 | 0.00 | 0.00 | 48 | 1006.2 |
| 20260503200820 | 18 | 266 | 41.8 | 51.5 | 0.00 | 0.00 | 0.00 | 48 | 1006.4 |
| 20260503200315 | 18 | 282 | 38.6 | 48.3 | 0.00 | 0.00 | 0.00 | 48 | 1006.8 |
| 20260503195813 | 18 | 271 | 33.8 | 41.8 | 0.00 | 0.00 | 0.00 | 49 | 1006.8 |
| 20260503195309 | 18 | 288 | 35.4 | 40.2 | 0.00 | 0.00 | 0.00 | 49 | 1006.9 |
| 20260503194807 | 18 | 272 | 40.2 | 54.7 | 0.00 | 0.00 | 0.00 | 50 | 1006.7 |
| 20260503194302 | 18 | 283 | 35.4 | 53.1 | 0.00 | 0.00 | 0.00 | 51 | 1007.0 |
| 20260503193759 | 17 | 270 | 38.6 | 66.0 | 0.00 | 0.00 | 0.00 | 51 | 1007.1 |
| 20260503193255 | 18 | 272 | 41.8 | 53.1 | 0.00 | 0.00 | 0.00 | 50 | 1006.9 |
| 20260503192751 | 18 | 246 | 35.4 | 43.5 | 0.00 | 0.00 | 0.00 | 52 | 1007.2 |
| 20260503192246 | 17 | 280 | 38.6 | 54.7 | 0.00 | 0.00 | 0.00 | 52 | 1007.2 |
| 20260503191743 | 17 | 280 | 38.6 | 48.3 | 0.00 | 0.00 | 0.00 | 54 | 1007.4 |
| 20260503191240 | 16 | 256 | 41.8 | 48.3 | 0.00 | 0.00 | 0.00 | 54 | 1007.3 |
| 20260503190737 | 18 | 270 | 48.3 | 54.7 | 0.00 | 0.00 | 0.00 | 53 | 1007.5 |
| 20260503190234 | 17 | 264 | 38.6 | 51.5 | 0.00 | 0.00 | 0.00 | 53 | 1007.6 |
| 20260503185731 | 17 | 264 | 46.7 | 53.1 | 0.00 | 0.00 | 0.00 | 53 | 1007.5 |
| 20260503185226 | 17 | 275 | 46.7 | 59.5 | 0.00 | 0.00 | 0.00 | 53 | 1007.8 |
| 20260503184721 | 16 | 295 | 38.6 | 51.5 | 0.00 | 0.00 | 0.00 | 54 | 1007.4 |
| 20260503184218 | 16 | 253 | 43.5 | 56.3 | 0.00 | 0.00 | 0.00 | 54 | 1007.6 |
| 20260503183714 | 16 | 276 | 49.9 | 59.5 | 0.00 | 0.00 | 0.00 | 53 | 1007.6 |
| 20260503183212 | 16 | 274 | 38.6 | 69.2 | 0.00 | 0.00 | 0.00 | 55 | 1007.7 |
| 20260503182710 | 16 | 261 | 51.5 | 74.0 | 0.00 | 0.00 | 0.00 | 53 | 1007.6 |
| 20260503182208 | 17 | 262 | 59.5 | 69.2 | 0.00 | 0.00 | 0.00 | 49 | 1007.3 |
| 20260503181704 | 17 | 260 | 38.6 | 48.3 | 0.00 | 0.00 | 0.00 | 50 | 1007.9 |
| 20260503181201 | 17 | 251 | 43.5 | 49.9 | 0.00 | 0.00 | 0.00 | 49 | 1007.8 |
| 20260503180658 | 17 | 211 | 51.5 | 62.8 | 0.00 | 0.00 | 0.00 | 48 | 1007.8 |
| 20260503180156 | 17 | 273 | 38.6 | 56.3 | 0.00 | 0.00 | 0.00 | 52 | 1007.9 |
| 20260503175653 | 16 | 244 | 29.0 | 51.5 | 0.00 | 0.00 | 0.00 | 53 | 1008.1 |
| 20260503175150 | 16 | 285 | 35.4 | 54.7 | 0.00 | 0.00 | 0.00 | 53 | 1008.1 |
| 20260503174646 | 16 | 258 | 20.9 | 41.8 | 0.00 | 0.00 | 0.00 | 56 | 1008.4 |
| 20260503174144 | 16 | 250 | 32.2 | 51.5 | 0.00 | 0.00 | 0.00 | 54 | 1008.6 |
| 20260503173639 | 16 | 257 | 29.0 | 41.8 | 0.00 | 0.00 | 0.00 | 55 | 1008.9 |
| 20260503173135 | 16 | 256 | 35.4 | 46.7 | 0.00 | 0.00 | 0.00 | 56 | 1008.7 |
| 20260503172632 | 15 | 248 | 29.0 | 41.8 | 0.00 | 0.00 | 0.00 | 56 | 1008.8 |
| 20260503172130 | 15 | 261 | 30.6 | 59.5 | 0.00 | 0.00 | 0.00 | 59 | 1008.9 |
| 20260503171626 | 15 | 240 | 29.0 | 53.1 | 0.00 | 0.00 | 0.00 | 58 | 1009.2 |
| 20260503171123 | 15 | 233 | 17.7 | 35.4 | 0.00 | 0.00 | 0.00 | 59 | 1009.2 |
| 20260503170621 | 15 | 259 | 22.5 | 29.0 | 0.00 | 0.00 | 0.00 | 60 | 1009.2 |
| 20260503170117 | 15 | 224 | 16.1 | 37.0 | 0.00 | 0.00 | 0.00 | 61 | 1009.2 |
| 20260503151012 | 10 | 251 | 27.4 | 37.0 | 0.00 | 0.00 | 0.00 | 78 | 1011.2 |
| 20260503150509 | 10 | 258 | 29.0 | 43.5 | 0.00 | 0.00 | 0.00 | 77 | 1011.2 |
| 20260503131402 | 11 | 261 | 25.7 | 40.2 | 0.00 | 0.00 | 0.00 | 66 | 1011.5 |
| 20260503130859 | 11 | 273 | 32.2 | 49.9 | 0.00 | 0.00 | 0.00 | 65 | 1011.8 |
| 20260503130356 | 11 | 256 | 29.0 | 41.8 | 0.00 | 0.00 | 0.00 | 66 | 1011.7 |
| 20260503110755 | 8 | 258 | 19.3 | 27.4 | 0.00 | 0.00 | 0.00 | 65 | 1011.9 |
| 20260503110252 | 8 | 270 | 24.1 | 27.4 | 0.00 | 0.00 | 0.00 | 64 | 1012.3 |
| 20260503100219 | 8 | 271 | 14.5 | 25.7 | 0.00 | 0.00 | 0.00 | 63 | 1012.5 |
| 20260503090138 | 8 | 270 | 19.3 | 24.1 | 0.00 | 0.00 | 0.00 | 63 | 1012.6 |
| 20260503081608 | 8 | 278 | 17.7 | 20.9 | 0.00 | 0.00 | 0.00 | 61 | 1013.1 |
| 20260503081105 | 8 | 244 | 16.1 | 24.1 | 0.00 | 0.00 | 0.00 | 60 | 1013.3 |
| 20260503080600 | 8 | 266 | 17.7 | 22.5 | 0.00 | 0.00 | 0.00 | 60 | 1013.3 |
| 20260503072540 | 8 | 258 | 16.1 | 22.5 | 0.00 | 0.00 | 0.00 | 59 | 1013.4 |
| 20260503072037 | 8 | 206 | 16.1 | 20.9 | 0.00 | 0.00 | 0.00 | 59 | 1013.5 |
| 20260503071533 | 9 | 269 | 16.1 | 27.4 | 0.00 | 0.00 | 0.00 | 58 | 1013.5 |
| 20260503071030 | 9 | 253 | 22.5 | 25.7 | 0.00 | 0.00 | 0.00 | 55 | 1013.5 |
| 20260503070526 | 9 | 298 | 17.7 | 25.7 | 0.00 | 0.00 | 0.00 | 57 | 1013.4 |
| 20260503054945 | 10 | 265 | 19.3 | 27.4 | 0.00 | 0.00 | 0.00 | 55 | 1014.0 |
| 20260503054442 | 10 | 283 | 24.1 | 29.0 | 0.00 | 0.00 | 0.00 | 54 | 1013.9 |
| 20260503053939 | 10 | 270 | 25.7 | 29.0 | 0.00 | 0.00 | 0.00 | 54 | 1014.1 |
| 20260503053437 | 10 | 275 | 22.5 | 25.7 | 0.00 | 0.00 | 0.00 | 54 | 1014.1 |
| 20260503052933 | 10 | 278 | 19.3 | 24.1 | 0.00 | 0.00 | 0.00 | 56 | 1014.4 |
| 20260503052431 | 10 | 274 | 19.3 | 25.7 | 0.00 | 0.00 | 0.00 | 55 | 1014.2 |
| 20260503051927 | 10 | 285 | 16.1 | 20.9 | 0.00 | 0.00 | 0.00 | 56 | 1014.3 |
| 20260503051423 | 9 | 269 | 19.3 | 22.5 | 0.00 | 0.00 | 0.00 | 56 | 1014.2 |
| 20260503050920 | 9 | 277 | 22.5 | 25.7 | 0.00 | 0.00 | 0.00 | 55 | 1014.5 |
| 20260503050416 | 9 | 277 | 17.7 | 24.1 | 0.00 | 0.00 | 0.00 | 57 | 1014.3 |
| 20260503045914 | 10 | 276 | 20.9 | 32.2 | 0.00 | 0.00 | 0.00 | 55 | 1014.2 |
| 20260503045411 | 9 | 275 | 22.5 | 25.7 | 0.00 | 0.00 | 0.00 | 56 | 1014.2 |
| 20260503044908 | 9 | 270 | 19.3 | 27.4 | 0.00 | 0.00 | 0.00 | 57 | 1014.4 |
| 20260503044405 | 9 | 280 | 19.3 | 24.1 | 0.00 | 0.00 | 0.00 | 58 | 1014.4 |
| 20260503043902 | 9 | 275 | 20.9 | 24.1 | 0.00 | 0.00 | 0.00 | 57 | 1014.5 |
| 20260503043359 | 9 | 258 | 19.3 | 24.1 | 0.00 | 0.00 | 0.00 | 56 | 1014.4 |
| 20260503042855 | 9 | 269 | 20.9 | 24.1 | 0.00 | 0.00 | 0.00 | 57 | 1014.5 |
| 20260503042352 | 9 | 292 | 19.3 | 24.1 | 0.00 | 0.00 | 0.00 | 57 | 1014.6 |
| 20260503041848 | 9 | 274 | 19.3 | 24.1 | 0.00 | 0.00 | 0.00 | 57 | 1014.6 |
| 20260503041345 | 8 | 271 | 19.3 | 22.5 | 0.00 | 0.00 | 0.00 | 58 | 1014.6 |
| 20260503040843 | 8 | 271 | 17.7 | 20.9 | 0.00 | 0.00 | 0.00 | 59 | 1014.6 |
| 20260503040340 | 8 | 287 | 17.7 | 22.5 | 0.00 | 0.00 | 0.00 | 57 | 1014.9 |
| 20260503035837 | 8 | 267 | 16.1 | 20.9 | 0.00 | 0.00 | 0.00 | 59 | 1014.7 |
| 20260503035334 | 8 | 265 | 16.1 | 24.1 | 0.00 | 0.00 | 0.00 | 59 | 1015.0 |
| 20260503034831 | 8 | 274 | 16.1 | 17.7 | 0.00 | 0.00 | 0.00 | 59 | 1015.0 |
| 20260503034329 | 8 | 269 | 14.5 | 17.7 | 0.00 | 0.00 | 0.00 | 60 | 1014.9 |
| 20260503033826 | 8 | 271 | 16.1 | 17.7 | 0.00 | 0.00 | 0.00 | 60 | 1014.9 |
| 20260503033323 | 8 | 271 | 16.1 | 17.7 | 0.00 | 0.00 | 0.00 | 60 | 1015.0 |
| 20260503032821 | 8 | 256 | 14.5 | 17.7 | 0.00 | 0.00 | 0.00 | 60 | 1015.0 |
| 20260503032320 | 8 | 266 | 14.5 | 16.1 | 0.00 | 0.00 | 0.00 | 61 | 1015.0 |
| 20260503031816 | 8 | 268 | 16.1 | 17.7 | 0.00 | 0.00 | 0.00 | 60 | 1015.2 |
| 20260503031315 | 8 | 270 | 16.1 | 16.1 | 0.00 | 0.00 | 0.00 | 60 | 1015.3 |
| 20260503030810 | 8 | 273 | 14.5 | 16.1 | 0.00 | 0.00 | 0.00 | 60 | 1015.1 |
| 20260503030307 | 9 | 280 | 14.5 | 16.1 | 0.00 | 0.00 | 0.00 | 58 | 1015.4 |
| 20260503025804 | 9 | 254 | 14.5 | 17.7 | 0.00 | 0.00 | 0.00 | 57 | 1015.3 |
| 20260503025304 | 9 | 268 | 14.5 | 16.1 | 0.00 | 0.00 | 0.00 | 57 | 1015.4 |
| 20260503024758 | 9 | 264 | 11.3 | 14.5 | 0.00 | 0.00 | 0.00 | 58 | 1015.4 |
| 20260503024255 | 9 | 269 | 11.3 | 12.9 | 0.00 | 0.00 | 0.00 | 58 | 1015.3 |
| 20260503023752 | 9 | 259 | 12.9 | 16.1 | 0.00 | 0.00 | 0.00 | 54 | 1015.3 |
| 20260503023249 | 10 | 262 | 11.3 | 12.9 | 0.00 | 0.00 | 0.00 | 54 | 1015.3 |
| 20260503022745 | 10 | 251 | 11.3 | 12.9 | 0.00 | 0.00 | 0.00 | 54 | 1015.3 |
| 20260503022240 | 10 | 251 | 11.3 | 14.5 | 0.00 | 0.00 | 0.00 | 52 | 1015.3 |
| 20260503021737 | 10 | 267 | 8.0 | 12.9 | 0.00 | 0.00 | 0.00 | 52 | 1015.4 |
| 20260503021233 | 10 | 247 | 8.0 | 9.7 | 0.00 | 0.00 | 0.00 | 53 | 1015.4 |
| 20260503020731 | 10 | 249 | 11.3 | 12.9 | 0.00 | 0.00 | 0.00 | 51 | 1015.3 |
| 20260503020228 | 10 | 251 | 8.0 | 11.3 | 0.00 | 0.00 | 0.00 | 51 | 1015.3 |
| 20260503015724 | 11 | 257 | 9.7 | 11.3 | 0.00 | 0.00 | 0.00 | 50 | 1015.2 |
| 20260503015221 | 11 | 247 | 8.0 | 11.3 | 0.00 | 0.00 | 0.00 | 50 | 1015.3 |
| 20260503014717 | 11 | 233 | 8.0 | 11.3 | 0.00 | 0.00 | 0.00 | 50 | 1015.3 |
| 20260503014216 | 11 | 242 | 9.7 | 12.9 | 0.00 | 0.00 | 0.00 | 48 | 1015.2 |
| 20260503013712 | 11 | 260 | 9.7 | 12.9 | 0.00 | 0.00 | 0.00 | 48 | 1015.0 |
| 20260503013210 | 11 | 250 | 8.0 | 9.7 | 0.00 | 0.00 | 0.00 | 47 | 1015.1 |
| 20260503012707 | 11 | 250 | 9.7 | 11.3 | 0.00 | 0.00 | 0.00 | 46 | 1015.2 |
| 20260503012204 | 11 | 257 | 8.0 | 9.7 | 0.00 | 0.00 | 0.00 | 48 | 1015.0 |
| 20260503011701 | 11 | 281 | 6.4 | 9.7 | 0.00 | 0.00 | 0.00 | 50 | 1015.2 |
| 20260503011158 | 11 | 280 | 8.0 | 11.3 | 0.00 | 0.00 | 0.00 | 50 | 1015.1 |
| 20260503010654 | 11 | 267 | 8.0 | 11.3 | 0.00 | 0.00 | 0.00 | 50 | 1015.2 |
| 20260503010151 | 11 | 282 | 8.0 | 11.3 | 0.00 | 0.00 | 0.00 | 50 | 1015.2 |
| 20260503005648 | 11 | 282 | 9.7 | 9.7 | 0.00 | 0.00 | 0.00 | 51 | 1015.3 |
| 20260503005145 | 11 | 280 | 11.3 | 12.9 | 0.00 | 0.00 | 0.00 | 50 | 1015.1 |
| 20260503004641 | 11 | 274 | 11.3 | 12.9 | 0.00 | 0.00 | 0.00 | 50 | 1015.0 |
| 20260503004140 | 12 | 274 | 14.5 | 16.1 | 0.00 | 0.00 | 0.00 | 46 | 1015.0 |
| 20260503003637 | 12 | 280 | 11.3 | 14.5 | 0.00 | 0.00 | 0.00 | 48 | 1015.0 |
| 20260503003134 | 12 | 283 | 11.3 | 12.9 | 0.00 | 0.00 | 0.00 | 50 | 1015.1 |
| 20260503002631 | 12 | 283 | 12.9 | 16.1 | 0.00 | 0.00 | 0.00 | 49 | 1015.2 |
| 20260503002127 | 12 | 283 | 11.3 | 14.5 | 0.00 | 0.00 | 0.00 | 48 | 1015.1 |
| 20260503001623 | 13 | 283 | 12.9 | 14.5 | 0.00 | 0.00 | 0.00 | 48 | 1015.1 |
| 20260503001120 | 13 | 286 | 8.0 | 12.9 | 0.00 | 0.00 | 0.00 | 47 | 1015.2 |